Time,TemperatureF,DewpointF,PressureIn,WindDirection,WindDirectionDegrees,WindSpeedMPH,WindSpeedGustMPH,Humidity,HourlyPrecipIn,Conditions,Clouds,dailyrainin,SoftwareType,DateUTC
2013-04-10 00:04:00,65.6,58.0,30.18,ENE,72,1.0,-999.0,76,-99.99,,,0.00,weatherlink.com 1.10,2013-04-10 04:04:00,
2013-04-10 00:19:00,66.0,58.0,30.18,East,89,0.0,-999.0,75,-99.99,,,0.00,weatherlink.com 1.10,2013-04-10 04:19:00,
2013-04-10 00:34:00,66.0,58.0,30.18,ENE,62,1.0,-999.0,75,-99.99,,,0.00,weatherlink.com 1.10,2013-04-10 04:34:00,
2013-04-10 00:49:00,66.0,58.0,30.18,ENE,64,0.0,-999.0,75,-99.99,,,0.00,weatherlink.com 1.10,2013-04-10 04:49:00,
2013-04-10 01:04:00,66.0,58.0,30.17,ENE,64,2.0,-999.0,75,-99.99,,,0.00,weatherlink.com 1.10,2013-04-10 05:04:00,
2013-04-10 01:19:00,65.8,58.0,30.17,ENE,76,0.0,-999.0,75,-99.99,,,0.00,weatherlink.com 1.10,2013-04-10 05:19:00,
2013-04-10 01:34:00,65.8,58.0,30.16,East,88,0.0,-999.0,75,-99.99,,,0.00,weatherlink.com 1.10,2013-04-10 05:34:00,
2013-04-10 01:49:00,65.8,58.0,30.15,ENE,66,0.0,-999.0,75,-99.99,,,0.00,weatherlink.com 1.10,2013-04-10 05:49:00,
2013-04-10 02:04:00,65.6,58.0,30.15,ENE,67,0.0,-999.0,76,-99.99,,,0.00,weatherlink.com 1.10,2013-04-10 06:04:00,
2013-04-10 02:19:00,65.5,58.0,30.14,ENE,68,0.0,-999.0,76,-99.99,,,0.00,weatherlink.com 1.10,2013-04-10 06:19:00,
2013-04-10 02:34:00,65.2,58.0,30.14,ENE,69,2.0,-999.0,77,-99.99,,,0.00,weatherlink.com 1.10,2013-04-10 06:34:00,
2013-04-10 02:49:00,65.0,58.0,30.13,ENE,69,0.0,-999.0,77,-99.99,,,0.00,weatherlink.com 1.10,2013-04-10 06:49:00,
2013-04-10 03:04:00,65.0,58.0,30.12,ENE,68,0.0,-999.0,77,-99.99,,,0.00,weatherlink.com 1.10,2013-04-10 07:04:00,
2013-04-10 03:19:00,64.8,57.0,30.13,ENE,70,0.0,-999.0,77,-99.99,,,0.00,weatherlink.com 1.10,2013-04-10 07:19:00,
2013-04-10 03:34:00,64.8,57.0,30.13,ENE,70,0.0,-999.0,77,-99.99,,,0.00,weatherlink.com 1.10,2013-04-10 07:34:00,
2013-04-10 03:49:00,64.7,57.0,30.12,ENE,70,0.0,-999.0,77,-99.99,,,0.00,weatherlink.com 1.10,2013-04-10 07:49:00,
2013-04-10 04:04:00,64.3,57.0,30.12,ENE,70,0.0,-999.0,78,-99.99,,,0.00,weatherlink.com 1.10,2013-04-10 08:04:00,
2013-04-10 04:19:00,64.2,58.0,30.12,ENE,70,0.0,-999.0,79,-99.99,,,0.00,weatherlink.com 1.10,2013-04-10 08:19:00,
2013-04-10 04:34:00,64.2,58.0,30.13,ENE,70,0.0,-999.0,79,-99.99,,,0.00,weatherlink.com 1.10,2013-04-10 08:34:00,
2013-04-10 04:49:00,64.2,58.0,30.13,ENE,72,0.0,-999.0,79,-99.99,,,0.00,weatherlink.com 1.10,2013-04-10 08:49:00,
2013-04-10 05:04:00,64.3,58.0,30.13,ENE,70,0.0,-999.0,80,-99.99,,,0.00,weatherlink.com 1.10,2013-04-10 09:04:00,
2013-04-10 05:19:00,64.2,58.0,30.13,ENE,70,0.0,-999.0,80,-99.99,,,0.00,weatherlink.com 1.10,2013-04-10 09:19:00,
2013-04-10 05:34:00,64.3,58.0,30.13,ENE,70,2.0,-999.0,80,-99.99,,,0.00,weatherlink.com 1.10,2013-04-10 09:34:00,
2013-04-10 05:49:00,64.2,58.0,30.13,ENE,70,0.0,-999.0,80,-99.99,,,0.00,weatherlink.com 1.10,2013-04-10 09:49:00,
2013-04-10 06:04:00,64.2,58.0,30.14,ENE,70,0.0,-999.0,80,-99.99,,,0.00,weatherlink.com 1.10,2013-04-10 10:04:00,
2013-04-10 06:19:00,64.0,58.0,30.14,ENE,70,0.0,-999.0,80,-99.99,,,0.00,weatherlink.com 1.10,2013-04-10 10:19:00,
2013-04-10 06:34:00,64.0,58.0,30.14,ENE,70,0.0,-999.0,80,-99.99,,,0.00,weatherlink.com 1.10,2013-04-10 10:34:00,
2013-04-10 06:49:00,64.0,58.0,30.14,ENE,70,0.0,-999.0,80,-99.99,,,0.00,weatherlink.com 1.10,2013-04-10 10:49:00,
2013-04-10 07:04:00,63.7,57.0,30.14,ENE,70,0.0,-999.0,80,-99.99,,,0.00,weatherlink.com 1.10,2013-04-10 11:04:00,
2013-04-10 07:19:00,63.7,58.0,30.14,ENE,70,0.0,-999.0,81,-99.99,,,0.00,weatherlink.com 1.10,2013-04-10 11:19:00,
2013-04-10 07:34:00,63.9,58.0,30.15,ENE,70,0.0,-999.0,81,-99.99,,,0.00,weatherlink.com 1.10,2013-04-10 11:34:00,
2013-04-10 07:49:00,64.3,59.0,30.16,ENE,70,0.0,-999.0,82,-99.99,,,0.00,weatherlink.com 1.10,2013-04-10 11:49:00,
2013-04-10 08:04:00,65.2,60.0,30.16,ENE,70,0.0,-999.0,84,-99.99,,,0.00,weatherlink.com 1.10,2013-04-10 12:04:00,
2013-04-10 08:19:00,66.1,-99.9,30.16,ENE,70,1.0,-999.0,-999,-99.99,,,0.00,weatherlink.com 1.10,2013-04-10 12:19:00,
2013-04-10 08:34:00,66.8,60.0,30.16,ENE,71,0.0,-999.0,80,-99.99,,,0.00,weatherlink.com 1.10,2013-04-10 12:34:00,
2013-04-10 08:49:00,67.3,60.0,30.16,NE,49,1.0,-999.0,78,-99.99,,,0.00,weatherlink.com 1.10,2013-04-10 12:49:00,
2013-04-10 09:04:00,67.9,60.0,30.17,North,354,2.0,-999.0,75,-99.99,,,0.00,weatherlink.com 1.10,2013-04-10 13:04:00,
2013-04-10 09:19:00,68.4,59.0,30.17,East,83,0.0,-999.0,73,-99.99,,,0.00,weatherlink.com 1.10,2013-04-10 13:19:00,
2013-04-10 09:34:00,68.8,59.0,30.17,NNE,27,0.0,-999.0,70,-99.99,,,0.00,weatherlink.com 1.10,2013-04-10 13:34:00,
2013-04-10 09:49:00,69.4,58.0,30.18,ENE,72,0.0,-999.0,68,-99.99,,,0.00,weatherlink.com 1.10,2013-04-10 13:49:00,
2013-04-10 10:04:00,69.9,58.0,30.18,NNE,22,0.0,-999.0,65,-99.99,,,0.00,weatherlink.com 1.10,2013-04-10 14:04:00,
2013-04-10 10:19:00,70.8,57.0,30.19,NW,304,2.0,-999.0,63,-99.99,,,0.00,weatherlink.com 1.10,2013-04-10 14:19:00,
2013-04-10 10:34:00,71.3,57.0,30.18,NNW,345,1.0,-999.0,61,-99.99,,,0.00,weatherlink.com 1.10,2013-04-10 14:34:00,
2013-04-10 10:49:00,72.1,56.0,30.19,ENE,70,0.0,-999.0,58,-99.99,,,0.00,weatherlink.com 1.10,2013-04-10 14:49:00,
2013-04-10 11:04:00,72.7,56.0,30.18,WNW,293,0.0,-999.0,57,-99.99,,,0.00,weatherlink.com 1.10,2013-04-10 15:04:00,
2013-04-10 11:19:00,73.9,57.0,30.18,NW,306,0.0,-999.0,56,-99.99,,,0.00,weatherlink.com 1.10,2013-04-10 15:19:00,
2013-04-10 11:35:00,74.2,56.0,30.18,WNW,291,1.0,-999.0,54,-99.99,,,0.00,weatherlink.com 1.10,2013-04-10 15:35:00,
2013-04-10 11:49:00,75.3,56.0,30.18,NE,43,3.0,-999.0,51,-99.99,,,0.00,weatherlink.com 1.10,2013-04-10 15:49:00,
2013-04-10 12:04:00,75.3,56.0,30.18,East,91,2.0,-999.0,51,-99.99,,,0.00,weatherlink.com 1.10,2013-04-10 16:04:00,
2013-04-10 12:20:00,76.1,56.0,30.18,NE,34,0.0,-999.0,50,-99.99,,,0.00,weatherlink.com 1.10,2013-04-10 16:20:00,
2013-04-10 12:35:00,76.8,56.0,30.18,NW,305,3.0,-999.0,49,-99.99,,,0.00,weatherlink.com 1.10,2013-04-10 16:35:00,
2013-04-10 12:50:00,78.3,56.0,30.17,North,9,1.0,-999.0,46,-99.99,,,0.00,weatherlink.com 1.10,2013-04-10 16:50:00,
2013-04-10 13:05:00,78.5,55.0,30.17,WNW,301,1.0,-999.0,45,-99.99,,,0.00,weatherlink.com 1.10,2013-04-10 17:05:00,
2013-04-10 13:20:00,79.8,55.0,30.17,NW,308,0.0,-999.0,43,-99.99,,,0.00,weatherlink.com 1.10,2013-04-10 17:20:00,
2013-04-10 13:35:00,80.5,55.0,30.17,NNE,12,2.0,-999.0,42,-99.99,,,0.00,weatherlink.com 1.10,2013-04-10 17:35:00,
2013-04-10 13:50:00,81.1,56.0,30.16,ENE,68,2.0,-999.0,42,-99.99,,,0.00,weatherlink.com 1.10,2013-04-10 17:50:00,
2013-04-10 14:05:00,79.4,54.0,30.16,NW,320,1.0,-999.0,42,-99.99,,,0.00,weatherlink.com 1.10,2013-04-10 18:05:00,
2013-04-10 14:20:00,80.3,54.0,30.15,North,6,0.0,-999.0,41,-99.99,,,0.00,weatherlink.com 1.10,2013-04-10 18:20:00,
2013-04-10 14:35:00,80.3,55.0,30.14,East,87,2.0,-999.0,42,-99.99,,,0.00,weatherlink.com 1.10,2013-04-10 18:35:00,
2013-04-10 14:50:00,81.2,54.0,30.14,NE,37,1.0,-999.0,39,-99.99,,,0.00,weatherlink.com 1.10,2013-04-10 18:50:00,
2013-04-10 15:05:00,81.6,56.0,30.14,NW,318,2.0,-999.0,41,-99.99,,,0.00,weatherlink.com 1.10,2013-04-10 19:05:00,
2013-04-10 15:20:00,81.2,55.0,30.14,ESE,109,2.0,-999.0,41,-99.99,,,0.00,weatherlink.com 1.10,2013-04-10 19:20:00,
2013-04-10 15:35:00,80.9,56.0,30.13,West,276,0.0,-999.0,42,-99.99,,,0.00,weatherlink.com 1.10,2013-04-10 19:35:00,
2013-04-10 15:50:00,81.1,55.0,30.12,WNW,301,0.0,-999.0,41,-99.99,,,0.00,weatherlink.com 1.10,2013-04-10 19:50:00,
2013-04-10 16:05:00,80.9,56.0,30.12,East,97,1.0,-999.0,43,-99.99,,,0.00,weatherlink.com 1.10,2013-04-10 20:05:00,
2013-04-10 16:20:00,80.5,56.0,30.11,East,89,1.0,-999.0,43,-99.99,,,0.00,weatherlink.com 1.10,2013-04-10 20:20:00,
2013-04-10 16:35:00,79.4,56.0,30.11,ENE,64,1.0,-999.0,44,-99.99,,,0.00,weatherlink.com 1.10,2013-04-10 20:35:00,
2013-04-10 16:50:00,79.0,56.0,30.11,NE,41,0.0,-999.0,46,-99.99,,,0.00,weatherlink.com 1.10,2013-04-10 20:50:00,
2013-04-10 17:05:00,78.6,57.0,30.10,NNE,15,0.0,-999.0,48,-99.99,,,0.00,weatherlink.com 1.10,2013-04-10 21:05:00,
2013-04-10 17:20:00,78.1,58.0,30.10,SSW,192,2.0,-999.0,50,-99.99,,,0.00,weatherlink.com 1.10,2013-04-10 21:20:00,
2013-04-10 17:35:00,76.8,58.0,30.09,NNW,328,1.0,-999.0,52,-99.99,,,0.00,weatherlink.com 1.10,2013-04-10 21:35:00,
2013-04-10 17:50:00,76.0,58.0,30.09,ENE,62,1.0,-999.0,54,-99.99,,,0.00,weatherlink.com 1.10,2013-04-10 21:50:00,
2013-04-10 18:05:00,75.3,58.0,30.09,ENE,58,0.0,-999.0,55,-99.99,,,0.00,weatherlink.com 1.10,2013-04-10 22:05:00,
2013-04-10 18:20:00,75.3,58.0,30.09,NE,40,0.0,-999.0,56,-99.99,,,0.00,weatherlink.com 1.10,2013-04-10 22:20:00,
2013-04-10 18:35:00,74.9,59.0,30.09,West,262,1.0,-999.0,57,-99.99,,,0.00,weatherlink.com 1.10,2013-04-10 22:35:00,
2013-04-10 18:50:00,74.4,59.0,30.09,WNW,295,0.0,-999.0,59,-99.99,,,0.00,weatherlink.com 1.10,2013-04-10 22:50:00,
2013-04-10 19:05:00,74.2,59.0,30.09,WNW,290,0.0,-999.0,60,-99.99,,,0.00,weatherlink.com 1.10,2013-04-10 23:05:00,
2013-04-10 19:20:00,73.5,59.0,30.08,WNW,290,0.0,-999.0,61,-99.99,,,0.00,weatherlink.com 1.10,2013-04-10 23:20:00,
2013-04-10 19:35:00,72.7,59.0,30.08,WNW,290,0.0,-999.0,63,-99.99,,,0.00,weatherlink.com 1.10,2013-04-10 23:35:00,
2013-04-10 19:50:00,72.0,59.0,30.08,WNW,290,0.0,-999.0,64,-99.99,,,0.00,weatherlink.com 1.10,2013-04-10 23:50:00,
2013-04-10 20:05:00,71.3,59.0,30.08,WNW,290,0.0,-999.0,66,-99.99,,,0.00,weatherlink.com 1.10,2013-04-11 00:05:00,
2013-04-10 20:20:00,70.8,60.0,30.08,WNW,290,0.0,-999.0,69,-99.99,,,0.00,weatherlink.com 1.10,2013-04-11 00:20:00,
2013-04-10 20:35:00,70.3,60.0,30.08,WNW,290,0.0,-999.0,70,-99.99,,,0.00,weatherlink.com 1.10,2013-04-11 00:35:00,
2013-04-10 20:50:00,69.8,60.0,30.08,WNW,290,1.0,-999.0,71,-99.99,,,0.00,weatherlink.com 1.10,2013-04-11 00:50:00,
2013-04-10 21:05:00,69.4,60.0,30.08,WNW,290,0.0,-999.0,72,-99.99,,,0.00,weatherlink.com 1.10,2013-04-11 01:05:00,
2013-04-10 21:20:00,69.3,60.0,30.07,WNW,290,0.0,-999.0,72,-99.99,,,0.00,weatherlink.com 1.10,2013-04-11 01:20:00,
2013-04-10 21:35:00,69.1,60.0,30.07,WNW,291,0.0,-999.0,73,-99.99,,,0.00,weatherlink.com 1.10,2013-04-11 01:35:00,
2013-04-10 21:50:00,68.9,60.0,30.06,South,189,1.0,-999.0,73,-99.99,,,0.00,weatherlink.com 1.10,2013-04-11 01:50:00,
2013-04-10 22:05:00,68.8,60.0,30.06,ENE,64,0.0,-999.0,73,-99.99,,,0.00,weatherlink.com 1.10,2013-04-11 02:05:00,
2013-04-10 22:20:00,68.6,60.0,30.06,SW,220,3.0,-999.0,73,-99.99,,,0.00,weatherlink.com 1.10,2013-04-11 02:20:00,
2013-04-10 22:35:00,68.3,60.0,30.06,NNE,31,1.0,-999.0,74,-99.99,,,0.00,weatherlink.com 1.10,2013-04-11 02:35:00,
2013-04-10 22:50:00,67.9,59.0,30.06,NNE,31,0.0,-999.0,74,-99.99,,,0.00,weatherlink.com 1.10,2013-04-11 02:50:00,
2013-04-10 23:05:00,67.8,59.0,30.06,ESE,118,0.0,-999.0,74,-99.99,,,0.00,weatherlink.com 1.10,2013-04-11 03:05:00,
2013-04-10 23:20:00,67.8,60.0,30.05,ESE,118,0.0,-999.0,75,-99.99,,,0.00,weatherlink.com 1.10,2013-04-11 03:20:00,
2013-04-10 23:35:00,67.3,59.0,30.05,ESE,118,0.0,-999.0,75,-99.99,,,0.00,weatherlink.com 1.10,2013-04-11 03:35:00,
2013-04-10 23:50:00,66.8,59.0,30.05,ESE,116,0.0,-999.0,75,-99.99,,,0.00,weatherlink.com 1.10,2013-04-11 03:50:00,